EW3230 Weather Reports


time (UTC)temp
F
wind
direction
speed
knots
gust
knots
rain 1hr
in
rain 24hr
in
rain mn
in
humidity
%
barometer
mb
20260507231525 62 284 0.9 5.2 0.00 0.48 0.42 37 1005.9
20260507230522 62 276 0.9 3.5 0.00 0.49 0.42 37 1005.8
20260507225522 63 209 0.0 1.7 0.00 0.50 0.42 37 1005.6
20260507224528 64 277 0.9 5.2 0.00 0.51 0.42 35 1005.5
20260507224522 63 52 0.9 3.5 0.00 0.51 0.42 35 1005.6
20260507222523 64 331 0.9 5.2 0.00 0.52 0.42 34 1005.4
20260507222024 65 255 1.7 7.0 0.00 0.52 0.42 35 1005.3
20260507220523 66 91 0.9 6.1 0.00 0.52 0.42 34 1005.3
20260507215522 67 295 0.9 4.3 0.00 0.52 0.42 33 1005.2
20260507214523 67 86 1.7 7.0 0.00 0.52 0.42 36 1005.1
20260507214024 67 288 0.9 6.1 0.00 0.52 0.42 34 1005.1
20260507212522 68 355 0.9 5.2 0.00 0.52 0.42 32 1005.0
20260507211525 68 261 0.9 4.3 0.00 0.52 0.42 32 1004.9
20260507210523 67 148 0.9 6.1 0.00 0.52 0.42 32 1004.9
20260507205517 68 338 0.9 7.0 0.00 0.52 0.42 32 1004.8
20260507204518 68 284 1.7 7.0 0.00 0.52 0.42 34 1004.8
20260507203516 68 238 0.9 3.5 0.00 0.52 0.42 36 1004.8
20260507203018 68 148 0.0 3.5 0.00 0.52 0.42 34 1004.7
20260507202017 67 276 0.9 6.1 0.00 0.52 0.42 35 1004.8
20260507200517 67 215 1.7 7.0 0.00 0.52 0.42 36 1004.7
20260507195516 67 89 0.9 6.1 0.00 0.52 0.42 33 1004.8
20260507195017 67 281 1.7 6.1 0.00 0.52 0.42 36 1005.1
20260507193516 67 40 0.9 4.3 0.00 0.52 0.42 35 1005.2
20260507192510 66 47 0.9 6.1 0.00 0.52 0.42 36 1005.4
20260507191510 66 141 0.9 2.6 0.00 0.52 0.42 39 1005.6
20260507191013 65 215 1.7 7.0 0.00 0.52 0.42 38 1005.7
20260507185512 64 218 0.9 4.3 0.00 0.52 0.42 51 1005.8
20260507184510 65 293 0.9 2.6 0.00 0.52 0.42 47 1006.0
20260507183510 65 257 0.9 3.5 0.00 0.52 0.42 68 1006.1
20260507183013 64 221 0.9 2.6 0.00 0.52 0.42 68 1006.2
20260507181511 63 236 0.9 3.5 0.00 0.52 0.42 70 1006.4
20260507180510 62 135 1.7 3.5 0.00 0.52 0.42 74 1006.4
20260507175513 60 118 0.0 0.9 0.00 0.52 0.42 73 1006.7
20260507175505 60 85 0.9 5.2 0.00 0.52 0.42 73 1006.5
20260507173507 60 120 0.9 2.6 0.00 0.52 0.42 70 1006.8
20260507172505 61 214 0.9 5.2 0.00 0.52 0.42 70 1006.8
20260507171517 63 174 0.9 3.5 0.00 0.52 0.42 68 1007.0
20260507170505 64 246 0.9 4.3 0.00 0.52 0.42 58 1007.0
20260507165504 65 238 0.9 4.3 0.00 0.52 0.42 54 1007.1
20260507164504 66 276 0.9 4.3 0.00 0.52 0.42 55 1007.2
20260507163504 65 239 0.9 4.3 0.00 0.52 0.42 57 1007.2
20260507163003 63 252 0.0 3.5 0.00 0.52 0.42 61 1007.3
20260507161459 62 205 0.9 3.5 0.00 0.52 0.42 65 1007.3
20260507160458 62 214 0.9 4.3 0.00 0.52 0.42 65 1007.6
20260507155458 61 335 0.9 4.3 0.00 0.52 0.42 68 1007.8
20260507155000 60 315 0.0 1.7 0.00 0.52 0.42 69 1007.8
20260507154003 60 69 0.0 3.5 0.00 0.52 0.42 70 1008.0
20260507152459 59 309 0.9 5.2 0.00 0.52 0.42 71 1008.1
20260507151459 59 229 1.7 6.1 0.00 0.52 0.42 74 1008.1
20260507150459 58 250 0.9 4.3 0.00 0.52 0.42 72 1008.2
20260507145459 57 302 0.9 4.3 0.00 0.52 0.42 78 1008.3
20260507145453 58 296 0.9 4.3 0.00 0.52 0.42 74 1008.0
20260507143454 56 232 0.0 2.6 0.00 0.52 0.42 79 1008.1
20260507142451 55 63 0.9 3.5 0.00 0.52 0.42 81 1008.3
20260507141453 55 276 0.9 3.5 0.00 0.52 0.42 81 1008.5
20260507140454 54 262 0.9 3.5 0.00 0.52 0.42 79 1008.5
20260507135452 53 268 0.0 2.6 0.00 0.52 0.42 75 1008.6
20260507134454 52 290 0.0 2.6 0.00 0.52 0.42 73 1008.3
20260507133454 51 163 0.0 1.7 0.00 0.52 0.42 73 1008.5
20260507132447 51 272 0.0 0.9 0.01 0.52 0.42 74 1008.7
20260507131947 50 293 0.0 1.7 0.01 0.52 0.42 73 1008.4
20260507130446 50 321 0.0 0.9 0.02 0.52 0.42 73 1008.6
20260507125945 49 304 0.0 0.9 0.03 0.52 0.42 72 1008.4
20260507124945 49 253 0.0 1.7 0.03 0.52 0.42 71 1008.6
20260507123444 49 6 0.0 0.9 0.03 0.52 0.42 69 1008.5
20260507122446 49 110 0.0 0.9 0.03 0.51 0.41 70 1008.8
20260507121948 49 291 0.0 0.9 0.04 0.51 0.41 69 1008.7
20260507120445 48 308 0.0 0.9 0.03 0.50 0.40 69 1008.4
20260507115442 48 302 0.0 0.9 0.03 0.49 0.39 70 1008.7
20260507114438 48 304 0.0 0.9 0.03 0.49 0.39 70 1008.5
20260507113439 48 291 0.0 1.7 0.04 0.49 0.39 71 1008.6
20260507112438 48 256 0.0 0.9 0.03 0.48 0.38 70 1008.6
20260507111438 48 295 0.9 4.3 0.03 0.47 0.37 70 1008.9
20260507110439 49 285 0.0 2.6 0.04 0.47 0.37 70 1007.8
20260507105940 49 316 0.0 2.6 0.04 0.46 0.37 70 1007.7
20260507104439 49 309 0.0 1.7 0.04 0.46 0.36 69 1007.8
20260507103438 50 56 0.9 3.5 0.04 0.45 0.35 69 1007.9
20260507102432 50 278 0.0 3.5 0.05 0.45 0.35 67 1007.7
20260507101433 50 276 0.0 2.6 0.06 0.44 0.34 67 1007.9
20260507100432 51 308 0.0 1.7 0.06 0.43 0.33 67 1007.2
20260507095432 51 319 0.9 3.5 0.06 0.42 0.32 67 1007.4
20260507094934 51 50 0.0 2.6 0.08 0.42 0.32 66 1007.4
20260507093433 52 284 0.0 2.6 0.08 0.41 0.31 66 1007.1
20260507092933 52 52 0.0 1.7 0.11 0.40 0.30 65 1007.2
20260507091433 53 322 0.9 3.5 0.17 0.38 0.28 65 1007.1
20260507090435 53 342 0.0 0.9 0.26 0.37 0.27 65 1007.1
20260507085429 54 275 0.0 3.5 0.26 0.36 0.26 65 1007.4
20260507084428 54 290 0.0 1.7 0.24 0.34 0.24 64 1006.8
20260507083430 55 210 0.0 2.6 0.19 0.29 0.19 64 1007.1
20260507083426 55 297 0.0 0.9 0.22 0.32 0.23 64 1006.9
20260507081427 55 255 0.0 1.7 0.11 0.21 0.12 64 1007.4
20260507080427 54 197 0.0 0.9 0.01 0.11 0.01 64 1006.6
20260507075427 55 221 0.0 0.0 0.00 0.10 0.00 64 1006.2
20260507074427 55 221 0.0 0.0 0.00 0.10 0.00 64 1006.2
20260507073426 55 221 0.0 0.0 0.00 0.10 0.00 64 1006.1
20260507072922 55 221 0.0 0.0 0.00 0.10 0.00 64 1006.2
20260507071420 55 221 0.0 0.0 0.00 0.10 0.00 64 1006.2
20260507070420 55 221 0.0 0.0 0.00 0.10 0.00 64 1006.2
20260507065420 55 221 0.0 0.0 0.00 0.10 0.00 64 1006.4
20260507064420 55 221 0.0 0.9 0.00 0.10 0.00 64 1006.3
20260507063922 55 221 0.0 0.9 0.00 0.10 0.00 65 1006.3
20260507062420 55 221 0.0 0.9 0.00 0.10 0.00 65 1006.3
20260507061422 55 221 0.0 0.9 0.00 0.10 0.00 65 1006.8
20260507060421 55 221 0.0 0.9 0.00 0.10 0.00 65 1006.6
20260507055416 54 255 0.0 0.9 0.00 0.10 0.00 65 1006.8
20260507054916 54 123 0.0 0.9 0.00 0.10 0.00 65 1006.7
20260507053414 55 170 0.0 0.9 0.00 0.10 0.00 65 1007.1
20260507052414 55 130 0.0 0.9 0.00 0.10 0.00 65 1007.3
20260507051415 55 268 0.0 0.9 0.00 0.10 0.00 65 1007.3
20260507050415 55 197 0.0 0.9 0.00 0.10 0.00 65 1007.3
20260507045418 55 203 0.0 0.9 0.00 0.10 0.00 65 1007.5
20260507044414 55 203 0.0 0.9 0.00 0.10 0.00 65 1007.4
20260507043415 55 203 0.0 0.9 0.00 0.10 0.00 65 1007.3
20260507042911 55 200 0.0 0.9 0.00 0.10 0.00 65 1007.5
20260507041408 55 203 0.0 0.9 0.00 0.10 0.00 65 1007.5
20260507040409 55 204 0.0 0.9 0.00 0.10 0.00 65 1007.5
20260507035407 55 215 0.0 0.9 0.00 0.10 0.10 65 1007.5
20260507034406 55 205 0.0 0.9 0.00 0.10 0.10 66 1007.5
20260507033408 55 210 0.0 2.6 0.00 0.10 0.10 66 1007.9
20260507032909 55 200 0.9 3.5 0.00 0.10 0.10 66 1007.7
20260507031406 55 201 0.9 3.5 0.00 0.10 0.10 66 1007.7
20260507030412 55 97 0.9 1.7 0.00 0.10 0.10 66 1007.3
20260507030406 55 229 0.9 3.5 0.00 0.10 0.10 66 1007.4
20260507024402 55 248 0.9 3.5 0.00 0.10 0.10 66 1007.4
20260507023401 55 208 0.9 1.7 0.00 0.10 0.10 66 1007.4
20260507022400 55 167 0.0 1.7 0.00 0.10 0.10 66 1007.7
20260507021400 56 206 0.9 3.5 0.00 0.10 0.10 66 1007.9
20260507020402 56 208 0.9 2.6 0.01 0.10 0.10 66 1008.0
20260507015401 56 180 0.9 2.6 0.01 0.10 0.10 66 1008.1
20260507014906 56 167 0.9 3.5 0.01 0.10 0.10 66 1008.1
20260507013404 56 198 0.9 4.3 0.01 0.10 0.10 66 1008.3
20260507012359 56 203 1.7 5.2 0.01 0.10 0.10 66 1008.5
20260507011407 56 174 1.7 6.1 0.01 0.10 0.10 66 1008.5
20260507010353 56 222 1.7 4.3 0.01 0.09 0.09 66 1008.4
20260507005353 56 229 0.9 7.0 0.02 0.09 0.09 66 1008.4
20260507004354 56 212 0.9 4.3 0.03 0.09 0.09 66 1008.4
20260507003355 56 224 0.9 4.3 0.05 0.09 0.09 66 1008.4
20260507002354 56 224 1.7 5.2 0.05 0.09 0.09 67 1008.4
20260507001853 56 179 1.7 5.2 0.05 0.09 0.09 67 1008.5
20260507001507 56 242 0.9 3.5 0.05 0.08 0.08 67 1008.5
20260506235346 56 210 0.9 4.3 0.05 0.07 0.07 67 1008.4
20260506234349 56 246 0.9 3.5 0.05 0.06 0.06 68 1008.4
20260506233847 56 205 1.7 6.1 0.03 0.04 0.04 68 1008.4
20260506232347 56 207 1.7 5.2 0.04 0.04 0.04 69 1008.1